"startDT [UTC]","vpos","CH4 [ppm]","stdev(CH4) [ppm]","CO2 [ppm]","stdev(CO2) [ppm]","H2O [ppm]","stdev(H2O)","p_LGR [torr]","T_LGR [C]","mt1_LGR [us]","mt2_LGR [us]","T_ECpre [C]","T_EC1 [C]","T_EC2 [C]","p_inlet [hPa]","p_in [hPa]","p_out [hPa]","T_inlet [C]","RH_inlet [%]","dwpt_inlet [C]","T_vent [C]","RH_vent [%]","dwpt_vent [C]","flow_vent [l min-1]","flow_inlet [l min-1]","dwpt_sample [C]","T_room [C]"
2012-12-20 00:00:00,0.0,1.9192,0.0008,-1.00,0.00,-1.0,0.0,138.21,23.32,24.61,36.45,0.04,-272.74,-272.75,-33,543,-924,18.0,1.3,-36.6,18.1,1.3,-36.1,5.73,2.37,-33.7,23.1
2012-12-20 00:01:00,0.0,1.9189,0.0009,-1.00,0.00,-1.0,0.0,138.21,23.32,24.60,36.44,0.04,-272.75,-272.75,-33,543,-924,18.0,1.3,-36.5,18.0,1.4,-36.0,5.73,2.39,-33.7,23.1
2012-12-20 00:02:00,0.0,1.9190,0.0008,-1.00,0.00,-1.0,0.0,138.22,23.32,24.61,36.44,0.04,-272.75,-272.75,-33,543,-924,17.9,1.3,-36.5,18.0,1.4,-36.0,5.73,2.46,-33.7,23.1
2012-12-20 00:03:00,0.0,1.9188,0.0009,-1.00,0.00,-1.0,0.0,138.21,23.31,24.61,36.44,0.04,-272.74,-272.75,-33,543,-924,17.9,1.3,-36.4,18.0,1.4,-36.0,5.73,2.49,-33.7,23.1
2012-12-20 00:04:00,0.0,1.9195,0.0008,-1.00,0.00,-1.0,0.0,138.22,23.32,24.60,36.45,0.04,-272.75,-272.75,-33,543,-924,17.9,1.3,-36.5,18.0,1.4,-36.0,5.73,2.46,-33.7,23.1
2012-12-20 00:05:00,0.0,1.9189,0.0010,-1.00,0.00,-1.0,0.0,138.21,23.32,24.61,36.44,0.04,-272.74,-272.75,-33,543,-924,17.9,1.3,-36.5,18.0,1.4,-36.0,5.73,2.40,-33.8,23.1
2012-12-20 00:06:00,0.0,1.9191,0.0007,-1.00,0.00,-1.0,0.0,138.22,23.33,24.61,36.43,0.04,-272.75,-272.75,-33,543,-924,17.9,1.3,-36.5,18.0,1.4,-36.0,5.73,2.37,-33.8,23.1
2012-12-20 00:07:00,0.0,1.9190,0.0008,-1.00,0.00,-1.0,0.0,138.21,23.33,24.60,36.43,0.04,-272.74,-272.74,-33,543,-924,17.9,1.3,-36.2,18.0,1.4,-35.8,5.73,2.43,-33.8,23.1
2012-12-20 00:08:00,0.0,1.9188,0.0008,-1.00,0.00,-1.0,0.0,138.22,23.32,24.61,36.44,0.04,-272.75,-272.75,-33,543,-924,17.9,1.3,-36.2,18.0,1.4,-35.8,5.73,2.49,-33.8,23.1
2012-12-20 00:09:00,0.0,1.9187,0.0008,-1.00,0.00,-1.0,0.0,138.21,23.32,24.60,36.44,0.04,-272.75,-272.75,-33,543,-924,17.9,1.3,-36.5,18.0,1.4,-35.8,5.73,2.47,-33.8,23.2
2012-12-20 00:10:00,0.0,1.9183,0.0007,-1.00,0.00,-1.0,0.0,138.22,23.31,24.61,36.43,0.04,-272.74,-272.75,-33,543,-924,17.9,1.3,-36.5,18.0,1.4,-35.8,5.73,2.41,-33.8,23.2
2012-12-20 00:11:00,0.0,1.9188,0.0008,-1.00,0.00,-1.0,0.0,138.21,23.31,24.60,36.44,0.04,-272.74,-272.74,-33,543,-924,17.9,1.3,-36.4,18.0,1.4,-35.9,5.73,2.39,-33.8,23.2
2012-12-20 00:12:00,0.0,1.9185,0.0010,-1.00,0.00,-1.0,0.0,138.22,23.31,24.61,36.45,0.04,-272.75,-272.75,-33,543,-924,17.9,1.3,-36.5,18.0,1.4,-36.0,5.73,2.41,-33.8,23.2
2012-12-20 00:13:00,0.0,1.9184,0.0009,-1.00,0.00,-1.0,0.0,138.21,23.31,24.61,36.43,0.04,-272.74,-272.74,-33,543,-924,17.9,1.3,-36.4,18.0,1.4,-36.0,5.73,2.47,-33.8,23.1
2012-12-20 00:14:00,0.0,1.9191,0.0009,-1.00,0.00,-1.0,0.0,138.22,23.31,24.61,36.44,0.04,-272.74,-272.75,-33,543,-924,17.9,1.3,-36.4,18.0,1.4,-36.0,5.73,2.49,-33.8,23.2
2012-12-20 00:15:00,0.0,1.9192,0.0009,-1.00,0.00,-1.0,0.0,138.21,23.31,24.60,36.43,0.04,-272.75,-272.75,-33,543,-924,17.9,1.3,-36.5,18.0,1.4,-36.0,5.73,2.44,-33.8,23.1
2012-12-20 00:16:00,0.0,1.9187,0.0008,-1.00,0.00,-1.0,0.0,138.21,23.31,24.61,36.44,0.04,-272.75,-272.74,-33,543,-924,17.9,1.3,-36.5,18.0,1.4,-36.0,5.73,2.38,-33.8,23.1
2012-12-20 00:17:00,0.0,1.9187,0.0010,-1.00,0.00,-1.0,0.0,138.21,23.30,24.60,36.44,0.04,-272.74,-272.75,-33,543,-924,17.9,1.3,-36.4,18.0,1.4,-36.0,5.73,2.39,-33.8,23.1
2012-12-20 00:18:00,0.0,1.9188,0.0009,-1.00,0.00,-1.0,0.0,138.21,23.30,24.60,36.44,0.04,-272.75,-272.75,-33,543,-924,17.9,1.3,-36.4,18.0,1.4,-36.0,5.73,2.45,-33.8,23.1
2012-12-20 00:19:00,0.0,1.9185,0.0009,-1.00,0.00,-1.0,0.0,138.22,23.29,24.61,36.43,0.04,-272.75,-272.75,-33,543,-924,17.9,1.3,-36.5,18.0,1.4,-36.0,5.73,2.49,-33.8,23.1
2012-12-20 00:20:00,0.0,1.9190,0.0008,-1.00,0.00,-1.0,0.0,138.21,23.29,24.60,36.44,0.04,-272.75,-272.74,-33,543,-924,17.9,1.3,-36.6,18.0,1.4,-36.0,5.73,2.46,-33.8,23.1
2012-12-20 00:21:00,0.0,1.9186,0.0008,-1.00,0.00,-1.0,0.0,138.22,23.29,24.60,36.43,0.04,-272.74,-272.74,-33,543,-924,17.9,1.3,-36.7,18.0,1.3,-36.2,5.73,2.39,-33.8,23.1
2012-12-20 00:22:00,0.0,1.9187,0.0008,-1.00,0.00,-1.0,0.0,138.21,23.29,24.60,36.44,0.04,-272.75,-272.75,-33,543,-924,17.9,1.3,-36.7,18.0,1.3,-36.2,5.73,2.38,-33.8,23.1
2012-12-20 00:23:00,0.0,1.9183,0.0011,-1.00,0.00,-1.0,0.0,138.21,23.28,24.61,36.44,0.04,-272.74,-272.75,-33,543,-924,17.9,1.3,-36.7,18.0,1.3,-36.2,5.73,2.44,-33.8,23.1
2012-12-20 00:24:00,0.0,1.9185,0.0009,-1.00,0.00,-1.0,0.0,138.22,23.28,24.61,36.44,0.04,-272.74,-272.74,-33,543,-924,17.9,1.3,-36.7,18.0,1.3,-36.2,5.73,2.48,-33.8,23.1
2012-12-20 00:25:00,0.0,1.9183,0.0011,-1.00,0.00,-1.0,0.0,138.21,23.28,24.61,36.44,0.04,-272.75,-272.75,-33,543,-924,17.9,1.3,-36.6,18.0,1.3,-36.2,5.73,2.48,-33.8,23.1
2012-12-20 00:26:00,0.0,1.9185,0.0009,-1.00,0.00,-1.0,0.0,138.21,23.28,24.61,36.44,0.04,-272.75,-272.75,-33,543,-924,17.9,1.3,-36.7,18.0,1.3,-36.2,5.73,2.42,-33.8,23.1
2012-12-20 00:27:00,0.0,1.9180,0.0008,-1.00,0.00,-1.0,0.0,138.21,23.29,24.61,36.44,0.04,-272.74,-272.74,-33,543,-924,17.9,1.3,-36.7,18.0,1.3,-36.2,5.73,2.37,-33.8,23.1
2012-12-20 00:28:00,0.0,1.9190,0.0010,-1.00,0.00,-1.0,0.0,138.22,23.29,24.60,36.44,0.04,-272.74,-272.75,-33,543,-924,17.9,1.3,-36.7,18.0,1.3,-36.2,5.73,2.41,-33.8,23.1
2012-12-20 00:29:00,0.0,1.9183,0.0009,-1.00,0.00,-1.0,0.0,138.21,23.28,24.61,36.44,0.04,-272.75,-272.75,-33,543,-924,17.9,1.3,-36.7,18.0,1.3,-36.3,5.73,2.48,-33.8,23.1
2012-12-20 00:30:00,0.0,1.9188,0.0008,-1.00,0.00,-1.0,0.0,138.21,23.28,24.60,36.44,0.04,-272.74,-272.74,-33,543,-924,17.9,1.3,-36.7,18.0,1.3,-36.2,5.73,2.48,-33.8,23.1
2012-12-20 00:31:00,0.0,1.9187,0.0009,-1.00,0.00,-1.0,0.0,138.22,23.28,24.61,36.44,0.04,-272.74,-272.74,-33,543,-924,17.9,1.3,-36.8,18.0,1.3,-36.3,5.73,2.44,-33.8,23.1
2012-12-20 00:32:00,0.0,1.9187,0.0010,-1.00,0.00,-1.0,0.0,138.21,23.28,24.61,36.43,0.04,-272.75,-272.75,-33,543,-924,17.9,1.2,-36.9,18.0,1.3,-36.3,5.73,2.39,-33.8,23.1
2012-12-20 00:33:00,0.0,1.9187,0.0008,-1.00,0.00,-1.0,0.0,138.21,23.28,24.61,36.44,0.04,-272.75,-272.74,-33,543,-924,17.9,1.3,-36.6,18.0,1.3,-36.2,5.73,2.39,-33.8,23.1
2012-12-20 00:34:00,0.0,1.9188,0.0009,-1.00,0.00,-1.0,0.0,138.21,23.27,24.60,36.44,0.04,-272.74,-272.75,-33,543,-925,17.9,1.3,-36.7,18.0,1.3,-36.2,5.73,2.44,-33.8,23.1
2012-12-20 00:35:00,0.0,1.9188,0.0010,-1.00,0.00,-1.0,0.0,138.21,23.27,24.60,36.44,0.04,-272.75,-272.75,-33,543,-924,17.9,1.3,-36.7,18.0,1.3,-36.1,5.73,2.50,-33.8,23.1
2012-12-20 00:36:00,0.0,1.9192,0.0010,-1.00,0.00,-1.0,0.0,138.21,23.27,24.60,36.44,0.04,-272.75,-272.75,-33,543,-924,17.9,1.3,-36.7,18.0,1.4,-36.1,5.73,2.46,-33.8,23.1
2012-12-20 00:37:00,0.0,1.9188,0.0009,-1.00,0.00,-1.0,0.0,138.22,23.27,24.60,36.44,0.04,-272.74,-272.74,-33,543,-925,17.9,1.3,-36.6,18.0,1.4,-36.0,5.73,2.40,-33.8,23.1
2012-12-20 00:38:00,0.0,1.9189,0.0007,-1.00,0.00,-1.0,0.0,138.21,23.26,24.61,36.44,0.04,-272.75,-272.74,-33,543,-924,17.9,1.3,-36.7,18.0,1.4,-36.1,5.73,2.37,-33.8,23.1
2012-12-20 00:39:00,0.0,1.9185,0.0007,-1.00,0.00,-1.0,0.0,138.21,23.26,24.61,36.44,0.04,-272.74,-272.75,-33,543,-924,17.9,1.3,-36.7,18.0,1.3,-36.1,5.73,2.42,-33.8,23.1
2012-12-20 00:40:00,0.0,1.9186,0.0009,-1.00,0.00,-1.0,0.0,138.22,23.26,24.61,36.44,0.04,-272.75,-272.75,-33,543,-924,17.9,1.3,-36.7,18.0,1.3,-36.2,5.73,2.48,-33.8,23.1
2012-12-20 00:41:00,0.0,1.9186,0.0008,-1.00,0.00,-1.0,0.0,138.22,23.26,24.61,36.44,0.04,-272.74,-272.75,-33,543,-925,17.9,1.3,-36.7,18.0,1.3,-36.1,5.73,2.48,-33.8,23.1
2012-12-20 00:42:00,0.0,1.9188,0.0008,-1.00,0.00,-1.0,0.0,138.21,23.26,24.61,36.43,0.04,-272.75,-272.75,-33,543,-925,17.9,1.3,-36.7,18.0,1.3,-36.2,5.73,2.43,-33.8,23.1
2012-12-20 00:43:00,0.0,1.9186,0.0010,-1.00,0.00,-1.0,0.0,138.22,23.26,24.61,36.44,0.04,-272.74,-272.75,-33,543,-925,17.9,1.3,-36.7,18.0,1.4,-36.0,5.73,2.39,-33.8,23.1
2012-12-20 00:44:00,0.0,1.9188,0.0008,-1.00,0.00,-1.0,0.0,138.21,23.26,24.60,36.44,0.04,-272.75,-272.75,-33,543,-925,17.9,1.3,-36.7,18.0,1.3,-36.1,5.73,2.38,-33.8,23.1
2012-12-20 00:45:00,0.0,1.9191,0.0009,-1.00,0.00,-1.0,0.0,138.21,23.25,24.61,36.44,0.04,-272.75,-272.74,-33,543,-924,17.9,1.3,-36.7,18.0,1.3,-36.2,5.73,2.45,-33.8,23.1
2012-12-20 00:46:00,0.0,1.9190,0.0008,-1.00,0.00,-1.0,0.0,138.21,23.25,24.61,36.44,0.04,-272.75,-272.74,-33,543,-924,17.9,1.3,-36.9,18.0,1.3,-36.4,5.73,2.48,-33.8,23.1
2012-12-20 00:47:00,0.0,1.9193,0.0009,-1.00,0.00,-1.0,0.0,138.21,23.25,24.60,36.44,0.04,-272.75,-272.74,-33,543,-925,17.9,1.3,-36.9,18.0,1.3,-36.4,5.73,2.47,-33.8,23.1
2012-12-20 00:48:00,0.0,1.9190,0.0009,-1.00,0.00,-1.0,0.0,138.21,23.25,24.61,36.44,0.04,-272.74,-272.75,-33,543,-924,17.9,1.2,-36.9,18.0,1.3,-36.4,5.73,2.40,-33.8,23.1
2012-12-20 00:49:00,0.0,1.9188,0.0009,-1.00,0.00,-1.0,0.0,138.21,23.25,24.61,36.44,0.04,-272.75,-272.75,-33,543,-924,17.9,1.2,-36.9,18.0,1.3,-36.5,5.73,2.38,-33.8,23.1
2012-12-20 00:50:00,0.0,1.9186,0.0010,-1.00,0.00,-1.0,0.0,138.22,23.25,24.61,36.44,0.04,-272.74,-272.74,-33,543,-924,17.9,1.3,-36.9,18.0,1.3,-36.4,5.73,2.42,-33.8,23.1
2012-12-20 00:51:00,0.0,1.9188,0.0008,-1.00,0.00,-1.0,0.0,138.21,23.25,24.61,36.43,0.04,-272.74,-272.75,-33,543,-924,17.9,1.3,-36.8,18.0,1.3,-36.4,5.73,2.48,-33.8,23.1
2012-12-20 00:52:00,0.0,1.9185,0.0010,-1.00,0.00,-1.0,0.0,138.22,23.25,24.61,36.44,0.04,-272.75,-272.75,-33,543,-924,17.9,1.2,-36.9,18.0,1.3,-36.4,5.73,2.48,-33.8,23.1
2012-12-20 00:53:00,0.0,1.9190,0.0008,-1.00,0.00,-1.0,0.0,138.21,23.25,24.60,36.44,0.04,-272.74,-272.75,-33,543,-925,17.9,1.2,-36.9,18.0,1.3,-36.4,5.73,2.42,-33.8,23.1
2012-12-20 00:54:00,0.0,1.9186,0.0009,-1.00,0.00,-1.0,0.0,138.21,23.25,24.61,36.44,0.04,-272.74,-272.75,-33,543,-924,17.9,1.2,-36.9,18.0,1.3,-36.4,5.73,2.38,-33.8,23.1
2012-12-20 00:55:00,0.0,1.9191,0.0008,-1.00,0.00,-1.0,0.0,138.22,23.25,24.60,36.44,0.04,-272.75,-272.75,-33,543,-924,17.9,1.2,-36.9,18.0,1.3,-36.4,5.73,2.40,-33.8,23.1
2012-12-20 00:56:00,0.0,1.9193,0.0009,-1.00,0.00,-1.0,0.0,138.21,23.25,24.61,36.44,0.04,-272.75,-272.75,-33,543,-925,17.9,1.2,-36.9,18.0,1.3,-36.4,5.73,2.46,-33.8,23.1
2012-12-20 00:57:00,0.0,1.9200,0.0009,-1.00,0.00,-1.0,0.0,138.21,23.25,24.61,36.44,0.04,-272.75,-272.74,-33,543,-925,17.9,1.2,-36.9,18.0,1.3,-36.5,5.73,2.49,-33.8,23.1
2012-12-20 00:58:00,0.0,1.9188,0.0008,-1.00,0.00,-1.0,0.0,138.21,23.26,24.61,36.44,0.04,-272.75,-272.74,-33,543,-924,17.9,1.2,-37.1,18.0,1.3,-36.6,5.73,2.45,-33.8,23.1
2012-12-20 00:59:00,0.0,1.9191,0.0008,-1.00,0.00,-1.0,0.0,138.22,23.26,24.61,36.44,0.04,-272.75,-272.75,-33,543,-925,17.9,1.2,-37.1,18.0,1.3,-36.7,5.73,2.39,-33.8,23.1
2012-12-20 01:00:00,0.0,1.9190,0.0008,-1.00,0.00,-1.0,0.0,138.21,23.26,24.61,36.44,0.04,-272.75,-272.74,-33,543,-924,17.9,1.2,-37.1,18.0,1.3,-36.7,5.73,2.38,-33.8,23.1
2012-12-20 01:01:00,0.0,1.9195,0.0008,-1.00,0.00,-1.0,0.0,138.21,23.25,24.60,36.45,0.04,-272.74,-272.74,-33,543,-924,17.9,1.2,-37.1,18.0,1.3,-36.6,5.73,2.44,-33.8,23.2
2012-12-20 01:02:00,0.0,1.9186,0.0009,-1.00,0.00,-1.0,0.0,138.21,23.25,24.61,36.43,0.04,-272.75,-272.75,-33,543,-925,17.9,1.2,-37.1,18.0,1.3,-36.6,5.73,2.49,-33.8,23.1
2012-12-20 01:03:00,0.0,1.9186,0.0009,-1.00,0.00,-1.0,0.0,138.21,23.25,24.61,36.44,0.04,-272.75,-272.75,-33,543,-925,17.9,1.2,-36.9,18.0,1.3,-36.5,5.73,2.47,-33.8,23.1
2012-12-20 01:04:00,0.0,1.9185,0.0008,-1.00,0.00,-1.0,0.0,138.21,23.24,24.61,36.44,0.04,-272.74,-272.75,-33,543,-924,17.9,1.3,-36.9,18.0,1.3,-36.5,5.73,2.42,-33.8,23.1
2012-12-20 01:05:00,0.0,1.9184,0.0008,-1.00,0.00,-1.0,0.0,138.22,23.24,24.61,36.44,0.04,-272.74,-272.75,-33,543,-924,17.9,1.2,-37.0,18.0,1.3,-36.6,5.73,2.38,-33.7,23.1
2012-12-20 01:06:00,0.0,1.9186,0.0009,-1.00,0.00,-1.0,0.0,138.21,23.24,24.60,36.44,0.04,-272.75,-272.75,-33,543,-925,17.9,1.3,-36.9,18.0,1.3,-36.4,5.73,2.40,-33.7,23.1
2012-12-20 01:07:00,0.0,1.9182,0.0009,-1.00,0.00,-1.0,0.0,138.22,23.24,24.61,36.44,0.04,-272.75,-272.75,-33,543,-924,17.9,1.2,-36.9,18.0,1.3,-36.4,5.73,2.45,-33.7,23.1
2012-12-20 01:08:00,0.0,1.9182,0.0008,-1.00,0.00,-1.0,0.0,138.21,23.24,24.61,36.44,0.04,-272.74,-272.74,-33,543,-924,17.9,1.3,-36.8,18.0,1.3,-36.2,5.73,2.49,-33.7,23.1
2012-12-20 01:09:00,0.0,1.9191,0.0009,-1.00,0.00,-1.0,0.0,138.21,23.25,24.60,36.44,0.04,-272.75,-272.75,-33,543,-924,17.9,1.2,-36.9,18.0,1.3,-36.3,5.73,2.46,-33.7,23.1
2012-12-20 01:10:00,0.0,1.9190,0.0009,-1.00,0.00,-1.0,0.0,138.21,23.26,24.60,36.44,0.04,-272.75,-272.75,-33,543,-924,17.9,1.2,-36.9,18.0,1.3,-36.3,5.73,2.40,-33.7,23.1
2012-12-20 01:11:00,0.0,1.9186,0.0009,-1.00,0.00,-1.0,0.0,138.22,23.25,24.60,36.44,0.04,-272.75,-272.74,-33,543,-924,17.9,1.3,-36.9,18.0,1.3,-36.2,5.73,2.38,-33.7,23.1
2012-12-20 01:12:00,0.0,1.9186,0.0007,-1.00,0.00,-1.0,0.0,138.21,23.25,24.61,36.44,0.04,-272.75,-272.74,-33,543,-924,17.9,1.2,-36.9,18.0,1.3,-36.2,5.73,2.41,-33.7,23.1
2012-12-20 01:13:00,0.0,1.9187,0.0008,-1.00,0.00,-1.0,0.0,138.21,23.25,24.61,36.44,0.04,-272.74,-272.74,-33,543,-924,17.9,1.2,-36.9,18.0,1.3,-36.2,5.73,2.47,-33.7,23.1
2012-12-20 01:14:00,0.0,1.9188,0.0009,-1.00,0.00,-1.0,0.0,138.21,23.25,24.61,36.45,0.04,-272.75,-272.75,-33,543,-925,17.9,1.3,-36.9,18.0,1.3,-36.2,5.73,2.49,-33.7,23.2
2012-12-20 01:15:00,0.0,1.9186,0.0009,-1.00,0.00,-1.0,0.0,138.22,23.25,24.60,36.45,0.04,-272.75,-272.75,-33,543,-925,17.9,1.2,-36.9,18.0,1.3,-36.4,5.73,2.45,-33.7,23.1
2012-12-20 01:16:00,0.0,1.9188,0.0007,-1.00,0.00,-1.0,0.0,138.22,23.24,24.61,36.44,0.04,-272.75,-272.75,-33,543,-924,17.9,1.2,-36.9,18.0,1.3,-36.4,5.73,2.39,-33.7,23.1
2012-12-20 01:17:00,0.0,1.9189,0.0009,-1.00,0.00,-1.0,0.0,138.21,23.24,24.60,36.44,0.04,-272.74,-272.74,-33,543,-924,17.9,1.2,-36.9,18.0,1.3,-36.4,5.73,2.38,-33.7,23.1
2012-12-20 01:18:00,0.0,1.9190,0.0011,-1.00,0.00,-1.0,0.0,138.22,23.25,24.61,36.44,0.04,-272.74,-272.75,-33,543,-924,17.9,1.2,-36.9,18.0,1.3,-36.4,5.73,2.43,-33.7,23.2
2012-12-20 01:19:00,0.0,1.9192,0.0008,-1.00,0.00,-1.0,0.0,138.21,23.26,24.61,36.44,0.04,-272.75,-272.75,-33,543,-924,17.9,1.2,-36.9,18.0,1.3,-36.4,5.73,2.48,-33.8,23.1
2012-12-20 01:20:00,0.0,1.9194,0.0008,-1.00,0.00,-1.0,0.0,138.22,23.26,24.61,36.44,0.04,-272.75,-272.75,-33,543,-924,17.9,1.2,-36.9,18.0,1.3,-36.4,5.73,2.48,-33.8,23.1
2012-12-20 01:21:00,0.0,1.9194,0.0009,-1.00,0.00,-1.0,0.0,138.21,23.26,24.61,36.44,0.04,-272.75,-272.75,-33,543,-924,17.9,1.3,-36.9,18.0,1.3,-36.4,5.73,2.42,-33.8,23.1
2012-12-20 01:22:00,0.0,1.9189,0.0009,-1.00,0.00,-1.0,0.0,138.21,23.26,24.61,36.44,0.04,-272.75,-272.75,-33,543,-925,17.9,1.2,-36.9,18.0,1.3,-36.4,5.73,2.38,-33.8,23.1
2012-12-20 01:23:00,0.0,1.9189,0.0008,-1.00,0.00,-1.0,0.0,138.22,23.26,24.61,36.44,0.04,-272.75,-272.74,-33,543,-924,17.9,1.3,-36.8,18.0,1.3,-36.3,5.73,2.39,-33.7,23.1
2012-12-20 01:24:00,0.0,1.9186,0.0009,-1.00,0.00,-1.0,0.0,138.21,23.25,24.61,36.43,0.04,-272.74,-272.74,-33,543,-924,17.9,1.3,-36.7,18.0,1.3,-36.2,5.73,2.45,-33.8,23.1
2012-12-20 01:25:00,0.0,1.9186,0.0010,-1.00,0.00,-1.0,0.0,138.21,23.25,24.61,36.44,0.04,-272.74,-272.75,-33,543,-925,17.9,1.3,-36.7,18.1,1.3,-36.1,5.73,2.48,-33.7,23.1
2012-12-20 01:26:00,0.0,1.9185,0.0009,-1.00,0.00,-1.0,0.0,138.22,23.25,24.61,36.44,0.04,-272.75,-272.75,-33,543,-924,17.9,1.3,-36.6,18.0,1.4,-36.0,5.73,2.47,-33.7,23.1
2012-12-20 01:27:00,0.0,1.9188,0.0007,-1.00,0.00,-1.0,0.0,138.21,23.25,24.61,36.44,0.04,-272.74,-272.75,-33,543,-924,17.9,1.3,-36.7,18.0,1.3,-36.1,5.73,2.41,-33.7,23.1
2012-12-20 01:28:00,0.0,1.9189,0.0007,-1.00,0.00,-1.0,0.0,138.21,23.24,24.60,36.44,0.04,-272.74,-272.74,-33,543,-924,17.9,1.3,-36.7,18.0,1.3,-36.2,5.73,2.37,-33.7,23.2
2012-12-20 01:29:00,0.0,1.9183,0.0008,-1.00,0.00,-1.0,0.0,138.21,23.24,24.61,36.45,0.23,-271.27,-272.66,-33,543,-924,17.9,1.3,-36.7,18.0,1.3,-36.1,5.42,2.48,-37.4,23.1
2012-12-20 01:30:00,0.0,1.9186,0.0010,-1.00,0.00,-1.0,0.0,138.21,23.24,24.60,36.44,0.04,-272.74,-272.75,-33,543,-924,17.9,1.3,-36.6,18.0,1.4,-36.0,5.73,2.47,-33.8,23.2
2012-12-20 01:31:00,0.0,1.9180,0.0009,-1.00,0.00,-1.0,0.0,138.21,23.24,24.61,36.43,0.04,-272.74,-272.75,-33,543,-924,17.9,1.3,-36.7,18.0,1.3,-36.1,5.73,2.48,-33.7,23.2
2012-12-20 01:32:00,0.0,1.9190,0.0007,-1.00,0.00,-1.0,0.0,138.21,23.24,24.60,36.44,0.04,-272.75,-272.75,-33,543,-924,17.9,1.3,-36.7,18.0,1.3,-36.2,5.73,2.45,-33.7,23.2
2012-12-20 01:33:00,0.0,1.9193,0.0007,-1.00,0.00,-1.0,0.0,138.21,23.24,24.60,36.44,0.04,-272.75,-272.75,-33,543,-924,17.9,1.3,-36.6,18.0,1.3,-36.2,5.73,2.40,-33.7,23.1
2012-12-20 01:34:00,0.0,1.9186,0.0008,-1.00,0.00,-1.0,0.0,138.21,23.25,24.60,36.43,0.04,-272.74,-272.75,-33,543,-924,17.9,1.3,-36.6,18.0,1.3,-36.1,5.73,2.39,-33.7,23.2
2012-12-20 01:35:00,0.0,1.9185,0.0008,-1.00,0.00,-1.0,0.0,138.21,23.25,24.61,36.43,0.04,-272.75,-272.75,-33,543,-924,18.0,1.3,-36.4,18.0,1.4,-36.0,5.73,2.41,-33.7,23.2
2012-12-20 01:36:00,0.0,1.9185,0.0010,-1.00,0.00,-1.0,0.0,138.21,23.25,24.60,36.44,0.04,-272.75,-272.75,-33,543,-924,18.0,1.3,-36.4,18.0,1.4,-36.0,5.73,2.47,-33.7,23.2
2012-12-20 01:37:00,0.0,1.9190,0.0008,-1.00,0.00,-1.0,0.0,138.21,23.25,24.60,36.44,0.04,-272.75,-272.75,-33,543,-924,18.0,1.3,-36.4,18.0,1.4,-36.0,5.73,2.49,-33.7,23.2
2012-12-20 01:38:00,0.0,1.9187,0.0009,-1.00,0.00,-1.0,0.0,138.22,23.25,24.61,36.44,0.04,-272.75,-272.74,-33,543,-924,18.0,1.3,-36.4,18.0,1.4,-36.0,5.73,2.45,-33.8,23.1
2012-12-20 01:39:00,0.0,1.9185,0.0008,-1.00,0.00,-1.0,0.0,138.21,23.25,24.61,36.44,0.04,-272.75,-272.75,-34,543,-924,17.9,1.3,-36.4,18.0,1.4,-36.0,5.73,2.40,-33.8,23.1
2012-12-20 01:40:00,0.0,1.9184,0.0010,-1.00,0.00,-1.0,0.0,138.22,23.25,24.61,36.44,0.04,-272.75,-272.75,-33,543,-924,18.0,1.3,-36.4,18.0,1.4,-35.9,5.73,2.38,-33.8,23.2
2012-12-20 01:41:00,0.0,1.9185,0.0009,-1.00,0.00,-1.0,0.0,138.21,23.25,24.60,36.44,0.04,-272.75,-272.74,-33,543,-924,17.9,1.3,-36.2,18.0,1.4,-35.8,5.73,2.41,-33.8,23.2
2012-12-20 01:42:00,0.0,1.9185,0.0010,-1.00,0.00,-1.0,0.0,138.21,23.25,24.60,36.44,0.04,-272.74,-272.75,-33,543,-924,17.9,1.3,-36.3,18.0,1.4,-35.8,5.73,2.45,-33.8,23.2
2012-12-20 01:43:00,0.0,1.9181,0.0009,-1.00,0.00,-1.0,0.0,138.22,23.25,24.61,36.44,0.04,-272.75,-272.75,-34,543,-924,17.9,1.3,-36.3,18.0,1.4,-35.8,5.73,2.48,-33.8,23.1
2012-12-20 01:44:00,0.0,1.9181,0.0008,-1.00,0.00,-1.0,0.0,138.21,23.25,24.61,36.44,0.04,-272.74,-272.75,-33,543,-924,17.9,1.3,-36.2,18.0,1.4,-35.6,5.73,2.46,-33.8,23.2
2012-12-20 01:45:00,0.0,1.9188,0.0008,-1.00,0.00,-1.0,0.0,138.21,23.25,24.60,36.44,0.04,-272.75,-272.75,-33,543,-924,18.0,1.4,-36.0,18.0,1.4,-35.6,5.73,2.42,-33.7,23.2
2012-12-20 01:46:00,0.0,1.9192,0.0009,-1.00,0.00,-1.0,0.0,138.21,23.25,24.60,36.44,0.04,-272.75,-272.75,-33,543,-924,18.0,1.3,-36.2,18.1,1.4,-35.7,5.73,2.39,-33.8,23.2
2012-12-20 01:47:00,0.0,1.9189,0.0008,-1.00,0.00,-1.0,0.0,138.21,23.26,24.61,36.43,0.04,-272.75,-272.75,-33,543,-924,18.0,1.3,-36.2,18.1,1.4,-35.8,5.73,2.40,-33.8,23.2
2012-12-20 01:48:00,0.0,1.9186,0.0009,-1.00,0.00,-1.0,0.0,138.21,23.25,24.61,36.44,0.04,-272.74,-272.75,-34,543,-924,18.0,1.3,-36.2,18.1,1.4,-35.8,5.73,2.45,-33.8,23.2
2012-12-20 01:49:00,0.0,1.9188,0.0008,-1.00,0.00,-1.0,0.0,138.21,23.25,24.60,36.44,0.04,-272.75,-272.75,-33,543,-924,18.0,1.3,-36.2,18.1,1.4,-35.8,5.73,2.49,-33.7,23.1
2012-12-20 01:50:00,0.0,1.9186,0.0011,-1.00,0.00,-1.0,0.0,138.22,23.25,24.61,36.44,0.04,-272.75,-272.75,-33,543,-924,18.0,1.3,-36.2,18.1,1.4,-35.8,5.73,2.47,-33.8,23.2
2012-12-20 01:51:00,0.0,1.9185,0.0009,-1.00,0.00,-1.0,0.0,138.21,23.25,24.61,36.44,0.04,-272.74,-272.75,-33,543,-924,18.0,1.3,-36.2,18.1,1.4,-35.8,5.73,2.41,-33.8,23.2
2012-12-20 01:52:00,0.0,1.9184,0.0010,-1.00,0.00,-1.0,0.0,138.21,23.25,24.61,36.44,0.04,-272.75,-272.74,-33,543,-924,18.0,1.3,-36.4,18.1,1.4,-35.8,5.73,2.38,-33.8,23.2
2012-12-20 01:53:00,0.0,1.9184,0.0009,-1.00,0.00,-1.0,0.0,138.22,23.25,24.61,36.44,0.04,-272.74,-272.74,-33,543,-924,17.9,1.3,-36.4,18.1,1.4,-36.0,5.73,2.40,-33.8,23.2
2012-12-20 01:54:00,0.0,1.9187,0.0009,-1.00,0.00,-1.0,0.0,138.21,23.25,24.60,36.44,0.04,-272.75,-272.75,-33,543,-924,17.9,1.3,-36.5,18.1,1.4,-35.9,5.73,2.44,-33.8,23.2
2012-12-20 01:55:00,0.0,1.9184,0.0009,-1.00,0.00,-1.0,0.0,138.22,23.24,24.61,36.44,0.04,-272.74,-272.74,-33,543,-924,17.9,1.3,-36.4,18.0,1.4,-35.8,5.73,2.48,-33.8,23.2
2012-12-20 01:56:00,0.0,1.9182,0.0008,-1.00,0.00,-1.0,0.0,138.21,23.24,24.61,36.44,0.04,-272.75,-272.75,-33,543,-924,17.9,1.3,-36.4,18.0,1.4,-35.8,5.73,2.47,-33.8,23.2
2012-12-20 01:57:00,0.0,1.9181,0.0008,-1.00,0.00,-1.0,0.0,138.21,23.24,24.61,36.44,0.04,-272.75,-272.75,-34,543,-924,17.9,1.3,-36.3,18.1,1.4,-35.8,5.73,2.42,-33.8,23.2
2012-12-20 01:58:00,0.0,1.9180,0.0007,-1.00,0.00,-1.0,0.0,138.21,23.24,24.61,36.44,0.04,-272.74,-272.75,-33,543,-924,17.9,1.3,-36.2,18.0,1.4,-35.8,5.73,2.39,-33.8,23.1
2012-12-20 01:59:00,0.0,1.9182,0.0010,-1.00,0.00,-1.0,0.0,138.21,23.24,24.61,36.44,0.04,-272.75,-272.75,-33,543,-924,17.9,1.3,-36.3,18.0,1.4,-35.8,5.73,2.39,-33.8,23.1
2012-12-20 02:00:00,0.0,1.9188,0.0008,-1.00,0.00,-1.0,0.0,138.21,23.24,24.60,36.44,0.04,-272.75,-272.75,-33,543,-924,17.9,1.3,-36.2,18.0,1.4,-35.7,5.73,2.43,-33.8,23.1
2012-12-20 02:01:00,0.0,1.9192,0.0008,-1.00,0.00,-1.0,0.0,138.21,23.25,24.60,36.44,0.04,-272.75,-272.75,-33,543,-924,17.9,1.3,-36.2,18.0,1.4,-35.8,5.73,2.47,-33.8,23.2
2012-12-20 02:02:00,0.0,1.9184,0.0009,-1.00,0.00,-1.0,0.0,138.21,23.25,24.61,36.44,0.04,-272.75,-272.75,-34,543,-924,17.9,1.3,-36.3,18.0,1.4,-35.8,5.73,2.48,-33.8,23.2
2012-12-20 02:03:00,0.0,1.9186,0.0010,-1.00,0.00,-1.0,0.0,138.21,23.25,24.61,36.44,0.04,-272.75,-272.75,-33,543,-924,17.9,1.3,-36.4,18.0,1.4,-35.9,5.73,2.44,-33.8,23.2
2012-12-20 02:04:00,0.0,1.9190,0.0009,-1.00,0.00,-1.0,0.0,138.21,23.24,24.60,36.44,0.04,-272.75,-272.75,-33,543,-924,17.9,1.3,-36.5,18.0,1.4,-36.0,5.73,2.39,-33.8,23.2
2012-12-20 02:05:00,0.0,1.9180,0.0009,-1.00,0.00,-1.0,0.0,138.21,23.24,24.61,36.44,0.04,-272.75,-272.74,-33,543,-924,17.9,1.3,-36.5,18.0,1.4,-36.0,5.73,2.38,-33.8,23.2
2012-12-20 02:06:00,0.0,1.9182,0.0009,-1.00,0.00,-1.0,0.0,138.21,23.24,24.60,36.44,0.04,-272.75,-272.74,-34,543,-924,17.9,1.3,-36.4,18.0,1.4,-35.9,5.73,2.42,-33.8,23.2
2012-12-20 02:07:00,0.0,1.9181,0.0010,-1.00,0.00,-1.0,0.0,138.21,23.24,24.61,36.44,0.04,-272.75,-272.75,-33,543,-924,17.9,1.3,-36.3,18.0,1.4,-35.8,5.73,2.47,-33.8,23.1
2012-12-20 02:08:00,0.0,1.9178,0.0009,-1.00,0.00,-1.0,0.0,138.22,23.23,24.61,36.44,0.04,-272.74,-272.74,-33,543,-924,18.0,1.3,-36.2,18.0,1.4,-35.8,5.73,2.48,-33.8,23.2
2012-12-20 02:09:00,0.0,1.9182,0.0009,-1.00,0.00,-1.0,0.0,138.21,23.23,24.60,36.44,0.04,-272.74,-272.75,-33,543,-924,18.0,1.3,-36.2,18.0,1.4,-35.8,5.73,2.45,-33.8,23.1
2012-12-20 02:10:00,0.0,1.9181,0.0008,-1.00,0.00,-1.0,0.0,138.21,23.23,24.60,36.44,0.04,-272.74,-272.75,-33,543,-924,18.0,1.3,-36.2,18.0,1.4,-35.8,5.73,2.40,-33.8,23.2
2012-12-20 02:11:00,0.0,1.9181,0.0010,-1.00,0.00,-1.0,0.0,138.22,23.23,24.61,36.44,0.04,-272.74,-272.75,-34,543,-924,18.0,1.3,-36.2,18.0,1.4,-35.8,5.73,2.39,-33.8,23.2
2012-12-20 02:12:00,0.0,1.9179,0.0007,-1.00,0.00,-1.0,0.0,138.21,23.23,24.60,36.44,0.04,-272.75,-272.75,-33,543,-924,17.9,1.3,-36.3,18.1,1.4,-35.8,5.73,2.41,-33.8,23.2
2012-12-20 02:13:00,0.0,1.9180,0.0007,-1.00,0.00,-1.0,0.0,138.21,23.23,24.60,36.43,0.04,-272.75,-272.75,-33,543,-924,17.9,1.3,-36.2,18.0,1.4,-35.8,5.73,2.46,-33.8,23.2
2012-12-20 02:14:00,0.0,1.9181,0.0008,-1.00,0.00,-1.0,0.0,138.22,23.23,24.60,36.44,0.04,-272.74,-272.75,-33,543,-924,17.9,1.3,-36.2,18.0,1.4,-35.8,5.73,2.48,-33.8,23.2
2012-12-20 02:15:00,0.0,1.9184,0.0009,-1.00,0.00,-1.0,0.0,138.21,23.23,24.60,36.44,0.04,-272.75,-272.75,-34,543,-924,17.9,1.3,-36.3,18.0,1.4,-35.8,5.73,2.47,-33.8,23.2
2012-12-20 02:16:00,0.0,1.9182,0.0008,-1.00,0.00,-1.0,0.0,138.22,23.23,24.60,36.44,0.04,-272.75,-272.75,-34,543,-924,17.9,1.3,-36.2,18.0,1.4,-35.8,5.73,2.42,-33.8,23.1
2012-12-20 02:17:00,0.0,1.9185,0.0009,-1.00,0.00,-1.0,0.0,138.21,23.23,24.60,36.44,0.04,-272.75,-272.75,-33,543,-924,17.9,1.3,-36.2,18.0,1.4,-35.8,5.73,2.38,-33.8,23.2
2012-12-20 02:18:00,0.0,1.9184,0.0010,-1.00,0.00,-1.0,0.0,138.22,23.24,24.61,36.44,0.04,-272.75,-272.74,-33,543,-924,17.9,1.3,-36.2,18.0,1.4,-35.8,5.73,2.40,-33.8,23.2
2012-12-20 02:19:00,0.0,1.9180,0.0008,-1.00,0.00,-1.0,0.0,138.21,23.24,24.61,36.44,0.04,-272.75,-272.75,-34,543,-924,17.9,1.3,-36.2,18.0,1.4,-35.8,5.73,2.45,-33.8,23.2